Zurück zum Katalog

FENGYUN 1C DEB

AktivPO
NORAD 33689·DEBRIS·🇨🇳 China

Gestartet May 10, 1999 von Taiyuan Satellite Launch Center

Loading…

Nächste Überflüge (nächste 24 Stunden)

TLE

AktuellSource: Space-Track

Epoche: Sep 13, 2026, 09:30 UTC

1 33689U 99025DGA 26256.39639072  .00001857  00000-0  52020-3 0  9997
2 33689  99.5467 303.3956 0047658  68.9262 358.3669 14.46840511735002

Verfolge FENGYUN 1C DEB in Echtzeit mit AllMySat

Download on the App Store